Regional Weather Roundup
Issued by NWS Raleigh/Durham, NC

Home | Current Version | Previous Version | Text Only | Print | Product List | Glossary On
Versions: 1 2 3 4 5 6 7 8 9 10 11 12 13 14 15 16 17 18 19 20 21 22 23 24 25 26 27
000
ASUS42 KRAH 260010
RWRRAH
NORTH CAROLINA WEATHER ROUNDUP
NATIONAL WEATHER SERVICE RALEIGH NC
700 PM EST SAT FEB 25 2017

NOTE: "FAIR" INDICATES FEW OR NO CLOUDS BELOW 12,000 FEET WITH NO
SIGNIFICANT WEATHER AND/OR OBSTRUCTIONS TO VISIBILITY.

NCZ001-053-055-056-065-067-260100-
WESTERN NORTH CAROLINA

CITY           SKY/WX    TMP DP  RH WIND       PRES   REMARKS
ASHEVILLE      CLEAR     48  18  30 N18G26    29.85R
JEFFERSON      PTCLDY    40  22  50 W22G35    29.80R WCI  29
MORGANTON      CLEAR     53  18  25 NW13      29.87R
HICKORY        CLEAR     54  18  24 W10G20    29.80R
RUTHERFORDTON  CLEAR     55  19  24 NW14G21   29.82R
MOUNT AIRY     CLEAR     55  23  28 W8G17     29.79R
BOONE          CLEAR     40  24  52 NW16G31   29.81R WCI  32
$$

NCZ021-022-025-041-071-084-088-260100-
CENTRAL NORTH CAROLINA

CITY           SKY/WX    TMP DP  RH WIND       PRES   REMARKS
CHARLOTTE      PTCLDY    63  20  19 NW8       29.76R
GREENSBORO     PTCLDY    58  25  28 NW20      29.72R
WINSTON-SALEM  CLEAR     58  18  21 W15G28    29.75R
RALEIGH-DURHAM PTCLDY    68  41  37 NW9G17    29.66R
FORT BRAGG     CLEAR     74  33  22 W21G30    29.65R
FAYETTEVILLE   CLEAR     75  41  29 SW20G30   29.65R
BURLINGTON     CLEAR     64  22  20 W18       29.69R
LAURINBURG     CLEAR     71  27  19 W18G26    29.70R
$$

NCZ011-015-027-028-043-044-047-080-103-260100-
NORTHEASTERN NORTH CAROLINA

CITY           SKY/WX    TMP DP  RH WIND       PRES   REMARKS
ROCKY MT-WILSO CLEAR     72  54  53 SW12      29.60R
GREENVILLE     PTCLDY    73  54  49 SW10G20   29.64R
WASHINGTON     PTCLDY    71  62  73 SW8       29.60R
ELIZABETH CITY CLEAR     68  60  75 S14G26    29.57R
MANTEO         CLEAR     64  62  91 SW20      29.60R
CAPE HATTERAS  CLEAR     71  63  75 SW21G30   29.64S HAZE
$$

NCZ078-087-090-091-093-098-101-260100-
SOUTHEASTERN NORTH CAROLINA

CITY           SKY/WX    TMP DP  RH WIND       PRES   REMARKS
LUMBERTON      PTCLDY    73  41  31 W12       29.67R
GOLDSBORO      CLEAR     73  55  51 SW13      29.61R
KINSTON        PTCLDY    73  54  49 SW9       29.63R
KENANSVILLE    PTCLDY    72  55  56 SW7       29.64R
NEW BERN       CLEAR     67  60  78 S13       29.65R
CHERRY POINT   CLEAR     67  59  75 SW15G25   29.66R
BEAUFORT       CLEAR     68  61  78 SW22G32   29.67R
JACKSONVILLE   CLEAR     67  60  78 S10       29.66R
WILMINGTON     CLEAR     66  59  78 SW13      29.68R
$$





USA.gov is the U.S. government's official web portal to all federal, state and local government web resources and services.